Location: Newark
(25.6108°S, 54.5803°W)
Time: 01:03:53
(UTC+00:00)

Courier 1B - All Passes

Search period start: 27 October 2020 00:00
Search period end: 06 November 2020 00:00
Orbit: 963 x 1209 km, 28.3° (Epoch: 26 October)

Date Brightness Start Highest point End Pass type
(mag) Time Alt. Az. Time Alt. Az. Time Alt. Az.
27 Oct - 00:07:40 10° NNW 00:13:36 26° NNE 00:19:46 10° E visible
27 Oct - 01:59:57 10° WNW 02:07:32 66° NNE 02:15:22 10° E night (unlit)
27 Oct - 03:54:13 10° W 04:02:06 77° S 04:10:00 10° E visible
27 Oct - 05:49:00 10° W 05:56:56 77° S 06:04:41 10° E visible
27 Oct - 07:43:42 10° W 07:51:27 65° NNW 07:58:50 10° ENE visible
27 Oct - 09:39:23 10° W 09:45:18 25° NNW 09:50:59 10° NNE daylight
27 Oct - 23:15:03 10° N 23:19:51 19° NNE 23:24:48 10° ENE visible
28 Oct - 01:06:21 10° NW 01:13:37 54° NNE 01:21:12 10° E visible
28 Oct - 03:00:12 10° W 03:08:00 84° S 03:15:57 10° ESE night (unlit)
28 Oct - 04:54:55 10° W 05:02:49 74° S 05:10:40 10° E visible
28 Oct - 06:49:35 10° WSW 06:57:29 78° NNW 07:05:07 10° ENE visible
28 Oct - 08:44:46 10° W 08:51:33 34° NNW 08:58:02 10° NNE daylight
28 Oct - 22:23:21 10° NNE 22:26:07 12° NE 22:28:57 10° ENE visible
29 Oct - 00:12:56 10° NW 00:19:45 42° NNE 00:26:57 10° E visible
29 Oct - 02:06:17 10° WNW 02:13:56 87° NNE 02:21:53 10° ESE night (unlit)
29 Oct - 04:00:51 10° W 04:08:41 73° S 04:16:36 10° E visible
29 Oct - 05:55:30 10° WSW 06:03:28 89° NNW 06:11:15 10° ENE visible
29 Oct - 07:50:23 10° W 07:57:43 44° NNW 08:04:46 10° NE visible
29 Oct - 09:47:53 10° WNW 09:51:25 14° NW 09:54:54 10° N daylight
29 Oct - 23:19:45 10° NNW 23:25:58 32° NNE 23:32:30 10° E visible
30 Oct - 01:12:29 10° WNW 01:19:56 76° NNE 01:27:47 10° ESE visible
30 Oct - 03:06:50 10° W 03:14:33 74° S 03:22:30 10° E night (unlit)
30 Oct - 05:01:28 10° WSW 05:09:24 82° S 05:17:17 10° E visible
30 Oct - 06:56:09 10° W 07:03:50 56° NNW 07:11:17 10° NE visible
30 Oct - 08:52:20 10° WNW 08:57:41 20° NNW 09:02:52 10° NNE daylight
30 Oct - 22:26:54 10° NNW 22:32:15 23° NNE 22:37:50 10° E visible
31 Oct - 00:18:50 10° WNW 00:26:01 63° NNE 00:33:38 10° E visible
31 Oct - 02:12:52 10° W 02:20:27 78° S 02:28:23 10° ESE visible
31 Oct - 04:07:27 10° W 04:15:17 77° S 04:23:12 10° E visible
31 Oct - 06:02:01 10° W 06:09:53 69° NNW 06:17:36 10° ENE visible
31 Oct - 07:57:29 10° W 08:03:53 28° NNW 08:10:06 10° NNE visible
31 Oct - 21:34:33 10° N 21:38:34 16° NNE 21:42:42 10° ENE daylight
31 Oct - 23:25:21 10° NW 23:32:10 50° NNE 23:39:26 10° E visible
01 Nov - 01:18:58 10° W 01:26:24 85° SSW 01:34:16 10° ESE visible
01 Nov - 03:13:28 10° W 03:21:10 73° S 03:29:06 10° E night (unlit)
01 Nov - 05:07:59 10° WSW 05:15:52 81° NNW 05:23:45 10° ENE visible
01 Nov - 07:02:58 10° W 07:10:03 37° NNW 07:16:58 10° NE visible
01 Nov - 09:02:46 10° NW 09:03:48 10° NW 09:04:50 10° NNW daylight
01 Nov - 20:44:10 10° NNE 20:44:54 10° NE 20:45:38 10° NE daylight
01 Nov - 22:32:04 10° NW 22:38:24 38° NNE 22:45:08 10° E visible
02 Nov - 00:25:10 10° WNW 00:32:25 85° NNE 00:40:09 10° ESE visible
02 Nov - 02:19:31 10° W 02:27:04 73° S 02:34:56 10° E visible
02 Nov - 04:14:00 10° WSW 04:21:50 89° SSE 04:29:46 10° ENE visible
02 Nov - 06:08:41 10° W 06:16:10 47° NNW 06:23:33 10° NE visible
02 Nov - 08:05:36 10° WNW 08:10:00 16° NNW 08:14:20 10° N visible
02 Nov - 21:39:01 10° NNW 21:44:42 28° NNE 21:50:41 10° E daylight
02 Nov - 23:31:29 10° WNW 23:38:30 72° NNE 23:46:02 10° ESE visible
03 Nov - 01:25:36 10° W 01:32:58 74° S 01:40:47 10° E visible
03 Nov - 03:20:04 10° WSW 03:27:45 81° S 03:35:41 10° E night (unlit)
03 Nov - 05:14:33 10° W 05:22:13 59° NNW 05:29:55 10° NE visible
03 Nov - 07:10:24 10° W 07:16:11 22° NNW 07:21:54 10° NNE visible
03 Nov - 20:46:19 10° NNW 20:51:03 20° NNE 20:55:58 10° ENE daylight
03 Nov - 22:37:56 10° NW 22:44:41 59° NNE 22:51:54 10° E visible
04 Nov - 00:31:45 10° W 00:38:57 79° S 00:46:39 10° ESE visible
04 Nov - 02:26:10 10° W 02:33:40 75° S 02:41:32 10° E visible
04 Nov - 04:20:32 10° WSW 04:28:15 71° NNW 04:36:07 10° ENE night (unlit)
04 Nov - 06:15:44 10° W 06:22:21 30° NNW 06:28:56 10° NNE visible
04 Nov - 19:54:16 10° N 19:57:26 14° NNE 20:00:38 10° ENE daylight
04 Nov - 21:44:32 10° NW 21:50:55 46° NNE 21:57:43 10° E daylight
04 Nov - 23:37:58 10° WNW 23:44:59 87° SSW 23:52:32 10° ESE visible
05 Nov - 01:32:17 10° W 01:39:36 72° S 01:47:22 10° E visible
05 Nov - 03:26:37 10° WSW 03:34:15 83° NNW 03:42:09 10° ENE night (unlit)
05 Nov - 05:21:22 10° W 05:28:28 39° NNW 05:35:38 10° NE visible
05 Nov - 07:19:42 10° NW 07:22:20 12° NW 07:25:00 10° NNW visible
05 Nov - 20:51:20 10° NW 20:57:14 34° NNE 21:03:27 10° E daylight
05 Nov - 22:44:14 10° WNW 22:51:05 82° NNE 22:58:26 10° ESE visible
